| time (UTC) | temp C | wind direction | speed KPH | gust KPH | rain 1hr cm | rain 24hr cm | rain mn cm | humidity % | barometer mb |
| 20260504234539 | 25 | 360 | 6.4 | 9.7 | 0.00 | 0.00 | 0.00 | 16 | 998.6 |
| 20260504233043 | 25 | 360 | 3.2 | 14.5 | 0.00 | 0.00 | 0.00 | 16 | 998.6 |
| 20260504231539 | 25 | 360 | 9.7 | 19.3 | 0.00 | 0.00 | 0.00 | 16 | 998.5 |
| 20260504230036 | 25 | 360 | 0.0 | 24.1 | 0.00 | 0.00 | 0.00 | 15 | 998.7 |
| 20260504224536 | 26 | 360 | 6.4 | 12.9 | 0.00 | 0.00 | 0.00 | 15 | 998.6 |
| 20260504223041 | 26 | 360 | 4.8 | 16.1 | 0.00 | 0.00 | 0.00 | 15 | 998.7 |
| 20260504221534 | 25 | 360 | 6.4 | 17.7 | 0.00 | 0.00 | 0.00 | 14 | 998.7 |
| 20260504220040 | 26 | 360 | 8.0 | 19.3 | 0.00 | 0.00 | 0.00 | 14 | 998.8 |
| 20260504214536 | 26 | 64 | 1.6 | 8.0 | 0.00 | 0.00 | 0.00 | 14 | 999.0 |
| 20260504213031 | 26 | 360 | 1.6 | 6.4 | 0.00 | 0.00 | 0.00 | 14 | 999.1 |
| 20260504211534 | 26 | 360 | 0.0 | 9.7 | 0.00 | 0.00 | 0.00 | 14 | 999.5 |
| 20260504210024 | 26 | 360 | 11.3 | 17.7 | 0.00 | 0.00 | 0.00 | 14 | 999.6 |
| 20260504204523 | 26 | 100 | 4.8 | 11.3 | 0.00 | 0.00 | 0.00 | 14 | 999.8 |
| 20260504203027 | 25 | 360 | 1.6 | 14.5 | 0.00 | 0.00 | 0.00 | 14 | 999.9 |
| 20260504201521 | 26 | 360 | 8.0 | 22.5 | 0.00 | 0.00 | 0.00 | 15 | 1000.1 |
| 20260504200017 | 26 | 84 | 12.9 | 20.9 | 0.00 | 0.00 | 0.00 | 15 | 1000.3 |
| 20260504194514 | 26 | 360 | 12.9 | 20.9 | 0.00 | 0.00 | 0.00 | 15 | 1000.5 |
| 20260504193020 | 26 | 360 | 1.6 | 9.7 | 0.00 | 0.00 | 0.00 | 12 | 1000.5 |
| 20260504191515 | 26 | 339 | 0.0 | 29.0 | 0.00 | 0.00 | 0.00 | 12 | 1000.6 |
| 20260504190012 | 27 | 360 | 19.3 | 29.0 | 0.00 | 0.00 | 0.00 | 12 | 1000.7 |
| 20260504184506 | 27 | 360 | 14.5 | 25.7 | 0.00 | 0.00 | 0.00 | 13 | 1000.8 |
| 20260504183002 | 27 | 360 | 8.0 | 22.5 | 0.00 | 0.00 | 0.00 | 14 | 1001.1 |
| 20260504181600 | 27 | 314 | 9.7 | 20.9 | 0.00 | 0.00 | 0.00 | 14 | 1001.4 |
| 20260504180057 | 27 | 360 | 12.9 | 22.5 | 0.00 | 0.00 | 0.00 | 16 | 1001.6 |
| 20260504174550 | 26 | 360 | 9.7 | 22.5 | 0.00 | 0.00 | 0.00 | 17 | 1002.0 |
| 20260504173048 | 26 | 360 | 14.5 | 29.0 | 0.00 | 0.00 | 0.00 | 16 | 1002.2 |
| 20260504171544 | 25 | 360 | 14.5 | 29.0 | 0.00 | 0.00 | 0.00 | 16 | 1002.3 |
| 20260504140110 | 16 | 360 | 14.5 | 22.5 | 0.00 | 0.00 | 0.00 | 41 | 1003.6 |
| 20260504090106 | 4 | 360 | 9.7 | 12.9 | 0.00 | 0.00 | 0.00 | 73 | 1004.0 |
| 20260504081551 | 4 | 360 | 1.6 | 3.2 | 0.00 | 0.00 | 0.00 | 70 | 1004.7 |
| 20260504050001 | 7 | 360 | 1.6 | 3.2 | 0.00 | 0.00 | 0.00 | 59 | 1005.5 |
| 20260504044601 | 7 | 360 | 0.0 | 0.0 | 0.00 | 0.00 | 0.00 | 57 | 1005.4 |
| 20260504043030 | 7 | 360 | 0.0 | 0.0 | 0.00 | 0.00 | 0.00 | 53 | 1005.5 |
| 20260504041529 | 8 | 360 | 0.0 | 3.2 | 0.00 | 0.00 | 0.00 | 54 | 1005.5 |
| 20260504040027 | 8 | 360 | 0.0 | 0.0 | 0.00 | 0.00 | 0.00 | 53 | 1005.6 |
| 20260504034533 | 9 | 360 | 1.6 | 4.8 | 0.00 | 0.00 | 0.00 | 50 | 1005.6 |
| 20260504033036 | 10 | 360 | 3.2 | 4.8 | 0.00 | 0.00 | 0.00 | 43 | 1005.6 |
| 20260504031529 | 11 | 105 | 0.0 | 3.2 | 0.00 | 0.00 | 0.00 | 38 | 1005.6 |
| 20260504030019 | 13 | 360 | 1.6 | 4.8 | 0.00 | 0.00 | 0.00 | 36 | 1005.4 |
| 20260504024539 | 15 | 92 | 0.0 | 3.2 | 0.00 | 0.00 | 0.00 | 33 | 1005.2 |
| 20260504023018 | 16 | 92 | 0.0 | 3.2 | 0.00 | 0.00 | 0.00 | 30 | 1005.3 |
| 20260504021519 | 17 | 92 | 0.0 | 1.6 | 0.00 | 0.00 | 0.00 | 28 | 1005.1 |
| 20260504020016 | 18 | 92 | 1.6 | 6.4 | 0.00 | 0.00 | 0.00 | 27 | 1005.0 |
| 20260504014515 | 20 | 92 | 0.0 | 1.6 | 0.00 | 0.00 | 0.00 | 24 | 1004.9 |
| 20260504013016 | 21 | 92 | 0.0 | 1.6 | 0.00 | 0.00 | 0.00 | 22 | 1004.8 |
| 20260504011514 | 22 | 92 | 0.0 | 3.2 | 0.00 | 0.00 | 0.00 | 21 | 1005.0 |
| 20260504010011 | 23 | 92 | 1.6 | 6.4 | 0.00 | 0.00 | 0.00 | 19 | 1004.9 |
| 20260504004520 | 23 | 90 | 3.2 | 11.3 | 0.00 | 0.00 | 0.00 | 17 | 1005.0 |
| 20260504003008 | 24 | 81 | 6.4 | 14.5 | 0.00 | 0.00 | 0.00 | 16 | 1005.2 |
| 20260504001507 | 24 | 80 | 8.0 | 19.3 | 0.00 | 0.00 | 0.00 | 16 | 1005.4 |
| 20260504000036 | 25 | 360 | 6.4 | 14.5 | 0.00 | 0.00 | 0.00 | 16 | 1005.5 |